QPF
0.01 0.00 0.02 0.03 0.01 0.00 0.01 0.05 0.02 0.00 0.01 0.01 0.00 0.00 0.00 0.00 0.00 0.00 0.00 0.00 0.00 0.00 0.00 0.00 0.00 0.00 0.00 0.00 0.00 0.00 0.00 0.00 0.00 0.00 0.00 0.00 0.00 0.00 0.00 0.00 0.00 0.00 0.00 0.00 0.00
0.05 0.01 0.01 0.03 0.03 0.01 0.01 0.03 0.04 0.01 0.00 0.00 0.00 0.00 0.00 0.00 0.00 0.00 0.00 0.00 0.00 0.00 0.00 0.00 0.00 0.00 0.00 0.00 0.00 0.00 0.00 0.00 0.00 0.00 0.00 0.00 0.00 0.00 0.00 0.00 0.00 0.00 0.00 0.00 0.00
0.06 0.03 0.01 0.02 0.03 0.02 0.01 0.03 0.03 0.02 0.01 0.01 0.00 0.00 0.00 0.00 0.00 0.00 0.00 0.00 0.00 0.00 0.00 0.00 0.00 0.00 0.00 0.00 0.00 0.00 0.00 0.00 0.00 0.00 0.00 0.00 0.00 0.00 0.00 0.00 0.00 0.00 0.00 0.00 0.00
0.04 0.04 0.01 0.02 0.02 0.03 0.01 0.03 0.03 0.02 0.01 0.02 0.01 0.00 0.00 0.00 0.00 0.00 0.00 0.00 0.00 0.00 0.00 0.00 0.00 0.00 0.00 0.00 0.00 0.00 0.00 0.00 0.00 0.00 0.00 0.00 0.00 0.00 0.00 0.00 0.00 0.00 0.00 0.00 0.00
0.02 0.03 0.03 0.02 0.03 0.04 0.01 0.02 0.03 0.01 0.02 0.02 0.02 0.01 0.00 0.00 0.00 0.00 0.00 0.00 0.00 0.00 0.00 0.00 0.00 0.00 0.00 0.00 0.00 0.00 0.00 0.00 0.00 0.00 0.00 0.00 0.00 0.00 0.00 0.00 0.00 0.00 0.00 0.00 0.00
0.00 0.03 0.03 0.02 0.03 0.03 0.03 0.02 0.05 0.01 0.01 0.02 0.02 0.01 0.00 0.00 0.00 0.00 0.00 0.00 0.00 0.00 0.00 0.00 0.00 0.00 0.00 0.00 0.00 0.00 0.00 0.00 0.00 0.00 0.00 0.00 0.00 0.00 0.00 0.00 0.00 0.00 0.00 0.00 0.00
0.00 0.02 0.05 0.02 0.02 0.04 0.03 0.02 0.06 0.00 0.00 0.01 0.00 0.01 0.00 0.00 0.00 0.00 0.00 0.00 0.00 0.00 0.00 0.00 0.00 0.00 0.00 0.00 0.00 0.00 0.00 0.00 0.00 0.00 0.00 0.00 0.00 0.00 0.00 0.00 0.00 0.00 0.00 0.00 0.00
0.00 0.00 0.03 0.04 0.01 0.03 0.04 0.04 0.06 0.01 0.00 0.00 0.00 0.00 0.00 0.00 0.00 0.00 0.00 0.00 0.00 0.00 0.00 0.00 0.00 0.00 0.00 0.00 0.00 0.00 0.00 0.00 0.00 0.00 0.00 0.00 0.00 0.00 0.00 0.00 0.00 0.00 0.00 0.00 0.00
0.00 0.00 0.00 0.02 0.02 0.03 0.04 0.07 0.04 0.02 0.00 0.00 0.00 0.00 0.00 0.00 0.00 0.00 0.00 0.00 0.00 0.00 0.00 0.00 0.00 0.00 0.00 0.00 0.00 0.00 0.00 0.00 0.00 0.00 0.00 0.00 0.00 0.00 0.00 0.00 0.00 0.00 0.00 0.00 0.00
0.00 0.00 0.00 0.01 0.03 0.03 0.07 0.10 0.06 0.03 0.01 0.01 0.01 0.00 0.00 0.00 0.00 0.00 0.00 0.00 0.00 0.00 0.00 0.00 0.00 0.00 0.00 0.00 0.00 0.00 0.00 0.00 0.00 0.00 0.00 0.00 0.00 0.00 0.00 0.00 0.00 0.00 0.00 0.00 0.00
0.00 0.00 0.00 0.01 0.05 0.07 0.11 0.10 0.06 0.05 0.02 0.00 0.00 0.00 0.00 0.00 0.00 0.00 0.00 0.00 0.00 0.00 0.00 0.00 0.00 0.00 0.00 0.00 0.00 0.00 0.00 0.00 0.00 0.00 0.00 0.00 0.00 0.00 0.00 0.00 0.00 0.00 0.00 0.00 0.00
0.00 0.00 0.01 0.01 0.04 0.07 0.07 0.01 0.00 0.00 0.00 0.00 0.00 0.00 0.00 0.00 0.00 0.00 0.00 0.00 0.00 0.00 0.00 0.00 0.00 0.00 0.00 0.00 0.00 0.00 0.00 0.00 0.00 0.00 0.00 0.00 0.00 0.00 0.00 0.00 0.00 0.00 0.00 0.00 0.00
0.00 0.00 0.01 0.02 0.06 0.07 0.05 0.00 0.00 0.00 0.00 0.00 0.00 0.00 0.00 0.00 0.00 0.00 0.00 0.00 0.00 0.00 0.00 0.00 0.00 0.00 0.00 0.00 0.00 0.00 0.00 0.00 0.00 0.00 0.00 0.00 0.00 0.00 0.00 0.00 0.00 0.00 0.00 0.00 0.00
0.00 0.00 0.01 0.03 0.06 0.05 0.04 0.00 0.00 0.00 0.00 0.00 0.00 0.00 0.00 0.00 0.00 0.00 0.00 0.00 0.00 0.00 0.00 0.00 0.00 0.00 0.00 0.00 0.00 0.00 0.00 0.00 0.00 0.00 0.00 0.00 0.00 0.00 0.00 0.00 0.00 0.00 0.00 0.00 0.00
0.00 0.01 0.01 0.03 0.04 0.02 0.00 0.00 0.00 0.00 0.00 0.00 0.00 0.00 0.00 0.00 0.00 0.00 0.00 0.00 0.00 0.00 0.00 0.00 0.00 0.00 0.00 0.00 0.00 0.00 0.00 0.00 0.00 0.00 0.00 0.00 0.00 0.00 0.00 0.00 0.00 0.00 0.00 0.00 0.00
0.00 0.01 0.02 0.04 0.04 0.01 0.00 0.00 0.00 0.00 0.00 0.00 0.00 0.00 0.00 0.00 0.00 0.00 0.00 0.00 0.00 0.00 0.00 0.00 0.00 0.00 0.00 0.00 0.00 0.00 0.00 0.00 0.00 0.00 0.00 0.00 0.00 0.00 0.00 0.00 0.00 0.00 0.00 0.00 0.00
0.00 0.01 0.03 0.02 0.03 0.01 0.00 0.00 0.00 0.00 0.00 0.00 0.00 0.00 0.00 0.00 0.00 0.00 0.00 0.00 0.00 0.00 0.00 0.00 0.00 0.00 0.00 0.00 0.00 0.00 0.00 0.00 0.00 0.00 0.00 0.00 0.00 0.00 0.00 0.00 0.00 0.00 0.00 0.00 0.00
0.00 0.03 0.06 0.02 0.02 0.01 0.00 0.00 0.00 0.00 0.00 0.00 0.00 0.00 0.00 0.00 0.00 0.00 0.00 0.00 0.00 0.00 0.00 0.00 0.00 0.00 0.00 0.00 0.00 0.00 0.00 0.00 0.00 0.00 0.00 0.00 0.00 0.00 0.00 0.00 0.00 0.00 0.00 0.00 0.00
0.00 0.04 0.09 0.04 0.01 0.00 0.00 0.00 0.00 0.00 0.00 0.00 0.00 0.00 0.00 0.00 0.00 0.00 0.00 0.00 0.00 0.00 0.00 0.00 0.00 0.00 0.00 0.00 0.00 0.00 0.00 0.00 0.00 0.00 0.00 0.00 0.00 0.00 0.00 0.00 0.00 0.00 0.00 0.00 0.00
0.02 0.08 0.09 0.05 0.00 0.00 0.00 0.00 0.00 0.00 0.00 0.00 0.00 0.00 0.00 0.00 0.00 0.00 0.00 0.00 0.00 0.00 0.00 0.00 0.00 0.00 0.00 0.00 0.00 0.00 0.00 0.00 0.00 0.00 0.00 0.00 0.00 0.00 0.00 0.00 0.00 0.00 0.00 0.00 0.00
0.02 0.08 0.05 0.04 0.00 0.00 0.00 0.00 0.00 0.00 0.00 0.00 0.00 0.00 0.00 0.00 0.00 0.00 0.00 0.00 0.00 0.00 0.00 0.00 0.00 0.00 0.00 0.00 0.00 0.00 0.00 0.00 0.00 0.00 0.00 0.00 0.00 0.00 0.00 0.00 0.00 0.00 0.00 0.00 0.00
0.01 0.03 0.03 0.03 0.00 0.00 0.00 0.00 0.00 0.00 0.00 0.00 0.00 0.00 0.00 0.00 0.00 0.00 0.00 0.00 0.00 0.00 0.00 0.00 0.00 0.00 0.00 0.00 0.00 0.00 0.00 0.00 0.00 0.00 0.00 0.00 0.00 0.00 0.00 0.00 0.00 0.00 0.00 0.00 0.00
0.00 0.00 0.04 0.02 0.00 0.00 0.00 0.00 0.00 0.00 0.00 0.00 0.00 0.00 0.00 0.00 0.00 0.00 0.00 0.00 0.00 0.00 0.00 0.00 0.00 0.00 0.00 0.00 0.00 0.00 0.00 0.00 0.00 0.00 0.00 0.00 0.00 0.00 0.00 0.00 0.00 0.00 0.00 0.00 0.00
0.00 0.00 0.01 0.01 0.00 0.00 0.00 0.00 0.00 0.00 0.00 0.00 0.00 0.00 0.00 0.00 0.00 0.00 0.00 0.00 0.00 0.00 0.00 0.00 0.00 0.00 0.00 0.00 0.00 0.00 0.00 0.00 0.00 0.00 0.00 0.00 0.00 0.00 0.00 0.00 0.00 0.00 0.00 0.00 0.00
0.00 0.00 0.00 0.00 0.00 0.00 0.00 0.00 0.00 0.00 0.00 0.00 0.00 0.00 0.00 0.00 0.00 0.00 0.00 0.00 0.00 0.00 0.00 0.00 0.00 0.00 0.00 0.00 0.00 0.00 0.00 0.00 0.00 0.00 0.00 0.00 0.00 0.00 0.00 0.00 0.00 0.00 0.00 0.00 0.00
0.00 0.00 0.00 0.00 0.00 0.00 0.00 0.00 0.00 0.00 0.00 0.00 0.00 0.00 0.00 0.00 0.00 0.00 0.00 0.00 0.00 0.00 0.00 0.00 0.00 0.00 0.00 0.00 0.00 0.00 0.00 0.00 0.00 0.00 0.00 0.00 0.00 0.00 0.00 0.00 0.00 0.00 0.00 0.00 0.00
0.00 0.00 0.00 0.00 0.00 0.00 0.00 0.00 0.00 0.00 0.00 0.00 0.00 0.00 0.00 0.00 0.00 0.00 0.00 0.00 0.00 0.00 0.00 0.00 0.00 0.00 0.00 0.00 0.00 0.00 0.00 0.00 0.00 0.00 0.00 0.00 0.00 0.00 0.00 0.00 0.00 0.00 0.00 0.00 0.00
MSLP
1010.24 1010.57 1010.47 1010.86 1011.01 1011.16 1011.43 1011.44 1011.81 1012.38 1012.73 1013.20 1014.03 1014.09 1014.54 1015.13 1015.02 1015.11 1014.42 1013.51 1013.86 1014.03 1014.44 1014.54 1014.62 1014.54 1014.81 1015.51 1015.88 1016.55 1017.68 1018.02 1017.48 1017.20 1016.48 1016.57 1016.95 1017.19 1017.36 1017.90 1018.45 1018.73 1019.07 1019.10 1019.99
1010.02 1010.11 1010.04 1010.52 1010.62 1010.66 1010.93 1011.24 1011.57 1012.10 1012.58 1013.00 1013.80 1014.16 1014.48 1015.46 1015.15 1014.77 1013.29 1013.17 1013.50 1014.00 1014.55 1014.54 1014.80 1014.89 1015.65 1015.93 1016.15 1016.53 1017.41 1017.17 1016.43 1016.15 1016.12 1016.26 1016.61 1016.99 1017.58 1018.27 1018.67 1018.86 1019.13 1019.46 1020.18
1009.16 1009.57 1009.76 1010.13 1010.31 1010.27 1010.49 1010.77 1011.18 1011.72 1012.11 1012.90 1013.56 1014.19 1015.19 1015.80 1015.50 1013.58 1012.88 1012.99 1013.43 1013.89 1014.12 1014.34 1014.71 1015.09 1016.12 1016.29 1016.32 1016.51 1016.74 1016.45 1015.74 1015.72 1015.88 1016.04 1016.70 1016.77 1017.34 1018.23 1017.98 1018.33 1019.15 1019.68 1020.24
1009.04 1009.48 1009.40 1009.49 1009.76 1009.81 1010.00 1010.40 1011.08 1011.36 1011.88 1012.66 1013.51 1014.22 1015.36 1015.90 1014.88 1012.22 1011.94 1012.57 1013.19 1013.86 1014.35 1014.65 1014.98 1015.57 1016.16 1016.60 1016.22 1016.63 1016.20 1016.14 1015.72 1015.58 1015.64 1016.08 1016.39 1016.80 1016.92 1016.79 1016.76 1017.54 1018.04 1019.34 1020.02
1008.77 1009.10 1008.92 1008.89 1009.24 1009.20 1009.55 1010.06 1010.73 1011.29 1011.88 1012.95 1013.29 1014.51 1015.29 1015.70 1014.11 1011.92 1011.95 1012.47 1013.21 1013.86 1014.20 1014.69 1015.21 1015.70 1016.09 1016.03 1016.24 1016.49 1016.25 1016.10 1015.84 1015.57 1015.61 1015.65 1016.19 1016.61 1016.89 1016.94 1017.21 1017.97 1018.78 1019.16 1019.73
1008.59 1008.65 1008.42 1008.61 1008.52 1008.65 1009.10 1009.70 1010.33 1011.20 1011.96 1012.96 1013.60 1014.22 1014.92 1015.04 1012.89 1011.86 1012.15 1012.68 1013.09 1013.72 1014.33 1014.51 1015.00 1015.38 1016.16 1016.29 1016.25 1016.23 1016.26 1016.24 1015.88 1015.96 1016.01 1015.93 1016.30 1016.54 1017.10 1017.43 1018.02 1018.37 1018.94 1019.40 1019.53
1008.44 1008.01 1008.35 1008.34 1008.46 1008.64 1008.83 1009.34 1009.96 1010.89 1011.62 1012.54 1013.44 1013.70 1014.25 1014.14 1013.16 1012.50 1012.57 1012.61 1013.15 1013.68 1014.26 1014.37 1014.58 1014.99 1015.81 1016.52 1016.20 1016.44 1016.84 1016.48 1016.06 1016.15 1016.36 1016.35 1016.79 1016.66 1017.05 1017.75 1018.46 1018.81 1019.17 1019.53 1019.79
1008.24 1008.61 1008.35 1007.98 1008.02 1008.45 1008.65 1009.01 1009.65 1010.51 1011.45 1012.31 1013.07 1013.50 1013.44 1013.48 1013.32 1012.53 1012.63 1013.09 1013.60 1013.77 1013.91 1014.17 1014.42 1015.12 1015.68 1016.02 1016.53 1017.09 1017.27 1016.95 1016.43 1016.29 1016.70 1016.67 1016.85 1016.88 1017.44 1017.84 1018.78 1019.16 1019.37 1019.65 1019.82
1008.05 1008.16 1007.71 1007.87 1007.63 1008.17 1008.42 1008.86 1009.78 1010.66 1011.27 1012.59 1013.57 1013.78 1013.42 1012.88 1012.75 1012.04 1012.70 1013.28 1013.88 1014.01 1014.08 1014.29 1014.75 1015.57 1016.23 1016.47 1017.10 1017.31 1017.22 1017.13 1016.85 1016.61 1016.92 1017.20 1017.18 1016.86 1017.51 1018.34 1018.82 1019.25 1019.39 1019.51 1019.77
1007.23 1007.22 1006.95 1007.09 1007.23 1007.65 1008.04 1008.95 1010.26 1011.17 1012.15 1012.61 1013.43 1013.63 1012.80 1012.12 1012.14 1012.39 1012.80 1013.31 1013.92 1014.25 1014.55 1014.99 1015.79 1016.35 1016.89 1016.94 1016.64 1017.36 1017.54 1017.42 1017.06 1017.13 1017.25 1017.61 1017.49 1017.46 1017.85 1018.43 1018.88 1019.13 1019.37 1019.63 1019.53
1006.95 1006.26 1006.68 1006.86 1007.30 1007.16 1007.47 1008.61 1010.79 1011.82 1011.57 1011.57 1011.82 1011.83 1011.28 1011.52 1011.96 1012.64 1013.55 1013.33 1013.99 1014.53 1015.08 1015.71 1016.44 1016.60 1016.95 1017.15 1016.92 1017.15 1017.34 1017.58 1017.33 1017.26 1017.48 1017.53 1017.54 1017.62 1018.13 1018.78 1019.18 1019.33 1019.42 1019.36 1018.98
1005.52 1005.57 1006.54 1006.70 1006.89 1006.87 1006.35 1007.17 1008.11 1008.56 1010.58 1011.25 1011.35 1011.72 1011.25 1010.79 1012.16 1012.80 1012.72 1013.44 1014.34 1015.04 1015.72 1016.68 1016.43 1016.63 1016.88 1017.01 1017.03 1017.34 1017.40 1017.95 1018.05 1017.88 1018.01 1017.98 1017.81 1017.75 1018.12 1018.20 1018.32 1018.61 1019.01 1018.84 1018.84
1005.70 1005.84 1005.89 1006.15 1006.65 1007.05 1005.83 1006.69 1007.22 1007.92 1009.62 1011.46 1010.83 1011.53 1011.43 1011.17 1012.06 1012.82 1013.04 1013.78 1014.38 1015.62 1016.13 1016.34 1016.49 1016.61 1016.79 1017.14 1017.58 1017.69 1017.52 1017.98 1018.27 1018.42 1018.58 1018.45 1018.27 1017.72 1017.60 1017.65 1017.72 1018.25 1018.13 1018.37 1018.02
1004.96 1005.23 1005.14 1006.19 1007.12 1005.65 1005.48 1006.62 1006.98 1006.90 1009.06 1010.84 1010.98 1011.05 1011.41 1011.49 1012.96 1013.38 1013.35 1013.64 1014.78 1015.53 1016.32 1016.32 1016.33 1016.58 1017.01 1017.05 1017.33 1017.95 1017.68 1017.95 1018.58 1019.05 1019.26 1019.04 1018.37 1017.56 1017.35 1017.37 1017.43 1017.50 1017.60 1017.31 1017.56
1004.44 1004.85 1005.15 1005.54 1004.52 1004.48 1004.97 1005.84 1006.95 1007.77 1008.97 1010.09 1010.68 1010.11 1011.16 1011.60 1011.76 1013.25 1013.65 1013.53 1014.37 1015.08 1015.80 1015.72 1016.24 1016.71 1016.89 1016.83 1017.30 1017.78 1017.85 1018.36 1019.01 1019.69 1019.70 1019.85 1019.61 1017.31 1017.14 1017.20 1016.93 1016.58 1016.41 1016.31 1016.10
1004.21 1004.53 1004.55 1004.36 1005.04 1003.15 1004.50 1005.35 1006.73 1008.22 1008.48 1009.46 1009.78 1010.04 1011.11 1011.71 1012.36 1013.48 1014.33 1014.15 1014.20 1014.87 1015.32 1015.74 1015.84 1015.94 1015.82 1016.21 1016.73 1017.64 1018.35 1019.26 1020.06 1020.68 1020.62 1019.48 1019.31 1017.12 1016.80 1016.18 1015.70 1015.55 1015.21 1015.18 1015.49
1003.40 1003.68 1003.47 1003.10 1003.19 1003.16 1004.12 1005.48 1006.78 1007.20 1008.54 1009.19 1008.93 1009.44 1010.68 1011.82 1012.87 1013.26 1014.77 1014.63 1014.22 1014.89 1015.48 1015.92 1016.13 1015.99 1015.76 1016.43 1017.08 1017.73 1018.65 1020.41 1021.53 1021.65 1020.75 1019.97 1019.65 1016.67 1015.48 1015.07 1014.89 1014.87 1015.04 1015.31 1015.67
1002.80 1002.19 1001.34 1001.38 1002.58 1002.24 1004.14 1006.03 1006.40 1006.35 1007.13 1007.48 1008.40 1009.70 1010.53 1011.44 1012.46 1012.80 1014.10 1014.33 1014.27 1014.32 1015.37 1015.78 1016.33 1015.83 1015.58 1015.55 1016.27 1017.74 1018.14 1019.25 1020.62 1021.67 1021.42 1020.73 1018.43 1015.56 1014.09 1013.67 1014.14 1014.59 1015.09 1015.53 1015.97
1002.14 1001.09 1000.40 1000.69 1001.77 1001.62 1003.81 1004.74 1003.02 1003.93 1004.72 1006.35 1008.42 1009.43 1010.50 1011.14 1011.45 1012.73 1013.25 1012.38 1012.29 1013.14 1013.64 1014.89 1015.50 1015.67 1015.49 1015.27 1015.50 1017.05 1017.80 1018.38 1020.05 1021.94 1021.55 1019.48 1017.36 1015.34 1013.80 1013.80 1013.77 1014.22 1015.12 1015.81 1016.73
1001.34 1000.40 999.32 1000.08 1000.88 1001.28 1003.27 1001.90 1001.81 1002.27 1003.52 1005.31 1006.42 1007.35 1008.32 1009.91 1010.61 1011.11 1011.95 1011.48 1011.68 1011.88 1011.37 1013.12 1015.33 1015.50 1015.51 1015.49 1015.63 1015.36 1016.75 1018.05 1019.57 1021.09 1021.34 1019.23 1017.76 1015.20 1013.92 1013.32 1013.22 1014.12 1015.01 1015.91 1016.87
1001.16 999.24 997.52 1000.23 1000.26 1001.55 1001.34 1001.46 1001.42 1001.39 1001.79 1003.28 1004.52 1006.15 1006.88 1008.09 1008.94 1009.70 1009.43 1009.42 1010.67 1011.57 1011.75 1012.38 1013.46 1016.02 1015.74 1015.15 1015.26 1015.87 1015.89 1017.15 1018.17 1019.34 1019.52 1019.22 1016.82 1013.96 1012.80 1012.05 1012.90 1013.46 1014.71 1015.67 1016.52
1000.58 999.03 997.65 998.75 1000.42 1001.15 1000.95 1000.90 1001.16 1001.63 1001.48 1002.28 1003.63 1004.46 1005.45 1006.91 1008.16 1009.03 1009.09 1008.47 1009.43 1010.37 1011.08 1011.79 1013.02 1015.50 1015.09 1015.03 1014.96 1015.00 1015.12 1015.93 1017.18 1018.80 1019.18 1018.72 1015.57 1013.53 1013.02 1012.92 1012.93 1013.22 1014.23 1015.30 1016.34
1000.01 998.98 996.90 997.92 998.75 1000.47 1000.79 1000.55 1000.64 1000.95 1001.00 1002.15 1003.20 1003.59 1004.59 1006.38 1008.10 1008.11 1008.26 1008.38 1008.64 1009.55 1009.86 1010.76 1012.84 1015.10 1016.11 1016.06 1015.38 1014.57 1014.66 1014.89 1016.13 1017.30 1017.58 1017.77 1014.72 1013.65 1013.27 1012.91 1012.92 1013.34 1014.17 1015.25 1016.53
1000.51 999.53 997.65 997.45 999.21 999.44 1000.03 1000.38 1000.42 1000.86 1001.21 1001.67 1002.41 1003.32 1004.91 1006.21 1006.71 1007.61 1008.06 1008.37 1008.45 1008.87 1009.35 1010.23 1012.32 1013.25 1013.61 1012.14 1013.84 1014.65 1014.45 1014.91 1015.50 1016.87 1016.36 1014.99 1014.52 1013.60 1013.40 1013.24 1013.08 1013.42 1014.37 1015.38 1016.58
1000.37 999.16 998.10 996.30 998.67 999.36 999.97 999.87 999.76 1000.17 1000.59 1001.25 1002.56 1002.41 1003.29 1005.61 1006.46 1006.93 1007.52 1008.24 1008.54 1009.06 1009.55 1009.96 1012.36 1013.65 1013.86 1013.64 1013.80 1013.78 1013.68 1013.79 1014.38 1013.64 1014.75 1011.04 1013.53 1012.96 1012.56 1012.88 1013.12 1013.64 1014.47 1015.37 1016.26
1000.52 1000.03 998.77 997.40 997.71 999.40 999.43 999.29 998.60 999.41 999.96 1000.54 1001.07 1002.17 1002.68 1003.48 1003.85 1005.77 1006.72 1007.39 1007.96 1009.57 1009.97 1010.59 1013.04 1014.07 1015.08 1014.74 1014.20 1013.94 1013.58 1013.75 1013.51 1011.99 1012.63 1012.21 1012.36 1012.12 1012.18 1012.72 1013.23 1013.73 1014.53 1015.14 1015.65
1000.52 1000.30 999.00 998.63 997.92 998.52 998.50 998.73 998.47 999.15 999.88 1000.33 1001.10 1002.50 1003.16 1003.41 1004.17 1005.37 1006.17 1007.10 1007.74 1008.99 1010.48 1011.68 1013.15 1015.06 1016.46 1015.84 1015.00 1014.94 1012.51 1012.09 1011.90 1011.46 1010.84 1011.47 1010.69 1012.31 1012.71 1012.98 1012.95 1013.39 1013.68 1014.17 1014.71
Thickness
5527 5539 5550 5562 5573 5585 5595 5608 5618 5630 5629 5635 5637 5643 5647 5648 5655 5659 5666 5686 5688 5691 5692 5695 5696 5700 5701 5696 5698 5689 5662 5662 5680 5683 5702 5706 5708 5716 5718 5709 5712 5713 5711 5715 5714
5520 5529 5542 5550 5564 5577 5588 5597 5611 5616 5618 5626 5631 5637 5641 5638 5647 5651 5676 5681 5684 5685 5684 5686 5684 5690 5680 5685 5687 5678 5659 5671 5694 5699 5701 5704 5709 5710 5710 5704 5706 5710 5713 5712 5710
5515 5522 5534 5540 5555 5570 5580 5591 5600 5610 5617 5621 5625 5628 5625 5628 5635 5656 5671 5676 5678 5680 5683 5685 5685 5683 5670 5673 5682 5680 5669 5683 5700 5704 5705 5705 5704 5712 5704 5703 5711 5713 5709 5710 5707
5500 5510 5525 5538 5547 5563 5575 5584 5590 5602 5610 5613 5617 5621 5611 5618 5627 5661 5670 5672 5673 5674 5675 5673 5675 5670 5666 5662 5679 5672 5682 5686 5695 5702 5703 5701 5704 5705 5713 5717 5726 5722 5722 5713 5708
5495 5501 5519 5534 5546 5556 5569 5576 5583 5593 5601 5602 5609 5603 5603 5607 5623 5655 5663 5665 5666 5668 5667 5665 5663 5662 5661 5670 5674 5670 5677 5683 5689 5697 5699 5703 5705 5704 5709 5716 5717 5718 5714 5713 5710
5488 5498 5516 5526 5539 5551 5562 5570 5577 5582 5586 5590 5594 5599 5602 5604 5631 5648 5656 5659 5661 5662 5660 5664 5661 5665 5657 5661 5663 5674 5672 5677 5684 5688 5692 5696 5699 5705 5707 5706 5707 5711 5709 5708 5710
5479 5499 5508 5523 5530 5541 5552 5563 5571 5574 5580 5581 5580 5590 5595 5601 5618 5634 5643 5652 5653 5655 5652 5661 5663 5663 5656 5651 5667 5668 5661 5670 5678 5680 5681 5688 5688 5694 5702 5701 5700 5703 5705 5704 5704
5467 5478 5499 5516 5525 5532 5546 5555 5563 5570 5572 5572 5573 5582 5588 5599 5607 5627 5634 5638 5642 5647 5652 5657 5660 5655 5655 5659 5656 5651 5652 5648 5668 5672 5674 5678 5668 5694 5692 5697 5694 5697 5699 5699 5700
5460 5473 5496 5503 5521 5527 5538 5549 5551 5558 5565 5560 5559 5566 5574 5591 5604 5626 5626 5629 5632 5639 5644 5650 5651 5644 5647 5638 5636 5638 5633 5643 5656 5667 5666 5667 5670 5690 5685 5687 5690 5693 5696 5698 5698
5458 5474 5493 5503 5519 5527 5530 5535 5536 5540 5540 5547 5549 5553 5574 5592 5605 5614 5620 5623 5626 5627 5630 5631 5625 5623 5622 5627 5630 5626 5633 5640 5645 5656 5659 5657 5663 5679 5680 5681 5684 5685 5688 5691 5695
5451 5471 5480 5494 5511 5526 5524 5520 5514 5516 5529 5543 5560 5575 5590 5596 5600 5602 5604 5614 5615 5616 5609 5618 5613 5611 5621 5628 5634 5635 5639 5639 5646 5652 5655 5652 5660 5667 5674 5673 5673 5677 5681 5686 5695
5455 5466 5473 5488 5509 5521 5526 5528 5537 5551 5540 5544 5557 5567 5582 5594 5588 5590 5602 5601 5599 5597 5603 5602 5607 5619 5623 5627 5629 5630 5631 5627 5634 5640 5645 5648 5653 5659 5664 5669 5675 5679 5675 5682 5688
5445 5458 5471 5486 5500 5502 5525 5529 5534 5546 5537 5538 5554 5555 5570 5585 5583 5585 5595 5594 5595 5587 5593 5597 5609 5614 5619 5619 5617 5620 5624 5621 5632 5631 5636 5641 5642 5657 5663 5667 5677 5673 5681 5683 5692
5445 5457 5472 5474 5477 5509 5520 5522 5534 5549 5521 5518 5537 5547 5559 5570 5564 5572 5585 5589 5583 5581 5583 5594 5606 5608 5608 5614 5614 5605 5624 5624 5618 5621 5616 5631 5617 5648 5654 5660 5666 5673 5676 5687 5689
5442 5454 5464 5469 5504 5513 5526 5527 5525 5527 5520 5514 5519 5543 5551 5560 5573 5568 5572 5583 5574 5578 5583 5594 5592 5594 5601 5609 5612 5607 5614 5614 5612 5609 5616 5613 5610 5639 5650 5650 5661 5676 5686 5693 5701
5437 5450 5460 5477 5486 5521 5524 5524 5517 5495 5492 5497 5517 5529 5537 5550 5558 5559 5555 5569 5574 5576 5584 5586 5596 5599 5609 5613 5614 5608 5603 5599 5592 5593 5592 5612 5613 5629 5640 5656 5672 5677 5690 5701 5700
5435 5446 5465 5482 5498 5510 5515 5505 5480 5491 5493 5493 5525 5540 5543 5541 5545 5552 5540 5550 5560 5556 5559 5574 5580 5591 5603 5599 5600 5601 5593 5567 5574 5571 5591 5598 5597 5639 5656 5658 5671 5681 5684 5686 5687
5430 5450 5473 5494 5496 5511 5499 5481 5487 5498 5509 5525 5530 5535 5530 5536 5540 5554 5542 5545 5559 5567 5557 5559 5560 5579 5594 5598 5591 5585 5590 5568 5561 5562 5583 5586 5605 5636 5657 5677 5673 5674 5676 5680 5678
5427 5451 5473 5486 5496 5504 5488 5487 5520 5527 5531 5530 5521 5518 5507 5527 5535 5534 5537 5564 5575 5572 5568 5556 5567 5581 5589 5597 5604 5584 5576 5590 5568 5496 5551 5593 5617 5642 5655 5663 5666 5668 5670 5672 5665
5428 5450 5482 5490 5492 5497 5483 5531 5529 5542 5539 5531 5528 5536 5531 5531 5528 5542 5543 5563 5570 5582 5599 5574 5565 5572 5579 5588 5593 5598 5596 5586 5557 5552 5559 5590 5600 5625 5649 5669 5669 5667 5665 5661 5654
5423 5459 5492 5482 5491 5481 5492 5519 5526 5545 5548 5543 5527 5535 5546 5537 5550 5549 5567 5577 5577 5577 5581 5575 5574 5556 5570 5575 5578 5582 5580 5579 5582 5572 5569 5561 5598 5631 5664 5677 5669 5667 5661 5653 5647
5425 5453 5477 5483 5468 5464 5487 5511 5523 5533 5546 5542 5540 5545 5552 5550 5538 5547 5553 5579 5582 5573 5577 5578 5563 5533 5569 5577 5583 5590 5593 5597 5589 5574 5567 5573 5600 5643 5645 5651 5661 5663 5659 5652 5644
5419 5438 5475 5476 5470 5467 5495 5512 5522 5532 5548 5538 5536 5548 5552 5545 5531 5550 5556 5570 5574 5572 5574 5574 5545 5522 5542 5559 5572 5579 5586 5591 5577 5566 5561 5567 5604 5626 5629 5644 5652 5655 5651 5642 5636
5409 5437 5459 5472 5469 5486 5487 5502 5510 5529 5537 5543 5538 5543 5538 5534 5541 5542 5547 5556 5566 5574 5570 5573 5544 5556 5563 5602 5584 5573 5580 5577 5580 5553 5565 5589 5608 5629 5628 5634 5647 5649 5643 5633 5626
5398 5427 5438 5478 5454 5482 5489 5505 5511 5520 5534 5537 5536 5550 5549 5531 5534 5533 5540 5546 5554 5556 5561 5567 5544 5539 5564 5576 5578 5577 5580 5583 5584 5607 5586 5644 5606 5625 5630 5627 5630 5633 5630 5624 5619
5401 5416 5431 5467 5483 5470 5487 5494 5523 5522 5532 5545 5545 5545 5548 5539 5562 5531 5533 5543 5547 5534 5545 5548 5503 5523 5513 5546 5558 5561 5568 5569 5582 5605 5600 5602 5601 5620 5620 5619 5616 5617 5614 5615 5615
5386 5398 5429 5451 5466 5474 5482 5497 5528 5532 5534 5547 5545 5530 5532 5542 5549 5546 5554 5550 5550 5544 5537 5532 5506 5503 5480 5493 5522 5523 5563 5575 5585 5595 5607 5590 5623 5604 5605 5604 5608 5611 5613 5614 5614